www.pogodaiklimat.ru

Погода и климат >> Архив погоды >> Россия >> Адыгея >> Дондуковская


ПОГОДА в Дондуковской

  • Прогноз погоды в Дондуковской
  • Монитор погоды в Дондуковской

АРХИВ ПОГОДЫ в Дондуковской

Время (UTC), дата Ветер
(напр.,м/с)
 
Видим.   Явления Облачность Т
(С)
Тd
(С)
f
(%)
Тe
(С)
Тes
(С)
Комфортность P
(гПа)
Po
(гПа)
Тmin
(С)
Tmax
(С)
R
(мм)
R24
(мм)
S
(см)
06 16.08 Ю 1 10 км 9/0
[Ac und]
+25.9 +16.6 56 +29 +33 душно 1006.3 988.5
09 16.08 З 1 10 км 10/0
[Ac und]
+30.4 +16.8 44 +34 +40 очень
душно
1006.7 989.1
12 16.08 З 1
{11}
10 км 10/0
[Ac und]
+28.7 +16.1 46 +32 +35 душно 1006.2 988.5
15 16.08 штиль 0 10 км 10/0
[Ac und]
+29.1 +17.6 50 +33 +34 очень
душно
1005.3 987.7 +31.4
18 16.08 З 1 10 км 10/6 1000 м
[Sc Ac lent]
+25.0 +18.3 66 +29 +29 душно 1006.9 989.0
21 16.08 Ю 2 10 км гроза, ливневой дождь 10/10 600 м
[Cb cap]
+22.2 +19.2 83 +28 +28 душно 1006.8 988.8
00 17.08 ЮЗ 4 10 км {гроза} 10/10 1000 м
[Sc]
+21.2 +19.0 87 +26 +26 душно 1008.1 989.9
03 17.08 З 2 10 км гроза, ливневой дождь 10/10 1000 м
[Cb cap]
+19.5 +18.3 93 +22 +22 комфорт 1008.8 990.6 +19.5 7
06 17.08 ЮЗ 2 10 км {гроза, ливн. осадки} 10/10 1000 м
[Sc]
+20.5 +18.9 91 +25 +25 комфорт 1009.6 991.4
09 17.08 З 1 10 км 10/10 1000 м
[Sc]
+24.0 +18.5 71 +28 +28 душно 1009.6 991.6
12 17.08 штиль 0 10 км 10/10 1000 м
[Sc]
+25.3 +17.9 64 +30 +30 душно 1009.6 991.7
15 17.08 штиль 0 10 км 4/0
[Ac As Ci fib]
+26.3 +18.2 61 +31 +32 душно 1009.3 991.5 +27.7
18 17.08 Ю 1 10 км 10/10 1000 м
[Sc]
+23.0 +19.4 80 +29 +29 очень
душно
1010.1 992.0
21 17.08 ЮЗ 1 10 км 10/10 1000 м
[Sc]
+21.6 +19.8 89 +27 +27 душно 1009.8 991.7
00 18.08 штиль 0 10 км {дождь} 10/10 1000 м
[Sc]
+20.7 +19.3 92 +25 +25 комфорт 1010.0 991.8
03 18.08 З 1 10 км {дождь} 10/10 1000 м
[Sc]
+19.7 +18.4 92 +23 +23 комфорт 1009.7 991.4 +19.7 1
06 18.08 штиль 0 4000 м дождь 10/0 600 м
[As op]
+19.4 +18.2 93 +21 +24 комфорт 1009.9 991.6 +19.4
09 18.08 З 1 10 км {дождь} 10/10 1000 м
[Sc]
+22.0 +19.9 88 +28 +28 душно 1009.9 991.8
12 18.08 СЗ 2 10 км {дождь} 8/5 1000 м
[Sc Ac lent]
+24.8 +19.7 73 +30 +33 душно 1009.8 991.9
15 18.08 З 1 10 км 8/0
[Ac As]
+24.0 +20.3 80 +30 +30 очень
душно
1010.5 992.5 +25.7 10
18 18.08 ЮЗ 2 10 км 10/0
[Ac und]
+21.0 +19.1 89 +26 +26 душно 1012.4 994.2
21 18.08 З 1 10 км 10/0
[Ac und]
+20.6 +18.8 89 +26 +26 душно 1013.2 995.0
00 19.08 ЮЗ 2 10 км 10/0
[Ac und]
+19.8 +18.4 92 +23 +23 комфорт 1014.0 995.7
03 19.08 ЮЗ 2 10 км 10/8 1000 м
[Sc Ac lent]
+18.8 +17.1 90 +21 +21 комфорт 1014.7 996.3 +18.8
06 19.08 З 2 10 км 10/10 1000 м
[Sc]
+19.3 +17.2 88 +22 +22 комфорт 1016.1 997.7
09 19.08 С 1 10 км 8/6 1000 м
[Cu med, cong Ac und]
+24.5 +18.9 71 +29 +34 душно 1015.7 997.6
12 19.08 СВ 2 10 км ясно +28.8 +19.4 57 +35 +45 очень
душно
1014.5 996.7
15 19.08 С 3 10 км ясно +29.5 +19.0 53 +35 +36 очень
душно
1014.2 996.4 +30.0
18 19.08 штиль 0 10 км ясно +23.7 +20.8 84 +30 +30 очень
душно
1015.6 997.5
21 19.08 штиль 0 10 км ясно +20.4 +18.8 91 +24 +24 комфорт 1015.9 997.6
00 20.08 штиль 0 10 км ясно +19.5 +18.1 92 +22 +22 комфорт 1016.0 997.7
03 20.08 штиль 0 10 км 3/0
[Ac trans]
+19.1 +17.9 93 +21 +21 комфорт 1016.7 998.3 +18.6
06 20.08 СВ 1 10 км 3/0
[Ac trans]
+26.3 +19.3 65 +32 +39 очень
душно
1016.4 998.4
09 20.08 С 3 10 км 3/0
[Ac trans Ci fib]
+31.8 +14.4 35 +34 +44 душно 1015.3 997.6
12 20.08 С 3 10 км гроза без осадков 6/3 1000 м
[Cb calv Ac As Ci fib]
+33.8 +14.2 31 +35 +40 очень
жарко
1014.2 996.7
15 20.08 С 3 10 км {гроза} 6/0
[Ac As Ci fib]
+32.2 +14.1 33 +34 +34 душно 1012.9 995.3 +34.6
18 20.08 штиль 0 10 км 8/0
[Ac As Ci fib]
+24.7 +16.5 60 +28 +28 душно 1015.4 997.3
21 20.08 штиль 0 10 км 10/0
[Ac und]
+22.5 +18.7 79 +28 +28 душно 1014.6 996.4
00 21.08 штиль 0 10 км 10/0
[Ac und]
+22.1 +19.2 84 +28 +28 душно 1013.7 995.5
03 21.08 ЮЗ 2 10 км 8/0
[Ac As Ci fib]
+21.5 +18.7 84 +26 +26 душно 1014.0 995.8 +21.3
06 21.08 ЮЗ 1 10 км ясно +26.0 +18.9 65 +31 +40 очень
душно
1014.1 996.1
09 21.08 СВ 2 10 км 4/0
[Ci fib]
+32.7 +17.4 40 +36 +50 очень
душно
1011.9 994.4
12 21.08 СВ 2 10 км 5/0
[Ci fib]
+36.3 +9.9 20 +35 +44 очень
жарко
1009.8 992.5
15 21.08 С 2 10 км ясно +34.4 +10.1 23 +34 +34 очень
жарко
1009.0 991.6 +37.2
18 21.08 СВ 2 10 км ясно +28.3 +8.6 29 +28 +28 жарко 1009.0 991.2
21 21.08 штиль 0 10 км ясно +25.0 +9.3 37 +26 +26 жарко 1010.6 992.6
00 22.08 СВ 1 10 км ясно +22.0 +9.7 46 +24 +24 комфорт 1010.3 992.1
03 22.08 штиль 0 10 км 3/0
[Ac cast]
+16.8 +12.6 76 +17 +17 1011.0 992.5 +16.8
06 22.08 СВ 1 10 км 5/0
[Ac trans Ci fib]
+26.6 +11.4 39 +28 +34 жарко 1011.1 993.2
09 22.08 В 3 10 км 6/0
[Ac trans Ci]
+34.8 +9.8 22 +34 +43 очень
жарко
1009.9 992.4
12 22.08 Ю 3 10 км 10/0
[Ac und Ci]
+32.2 +17.0 40 +36 +40 очень
душно
1009.6 992.0
15 22.08 Ю 1 10 км 10/0
[Ac und Ci]
+27.4 +17.0 53 +31 +32 душно 1010.1 992.3 +35.8
18 22.08 Ю 1 10 км 8/0
[Ac As]
+22.5 +17.9 75 +28 +28 душно 1011.3 993.1
21 22.08 Ю 1 10 км 8/0
[Ac As]
+21.2 +18.5 85 +26 +26 душно 1011.3 993.1
00 23.08 штиль 0 10 км 8/0
[Ac As]
+18.1 +16.7 92 +18 +18 1011.9 993.5
03 23.08 ЮВ 2 10 км 8/0
[Ac As]
+17.6 +16.4 93 +18 +18 1012.7 994.2 +17.3

 

Местоположение метеостанции Дондуковская (Адыгея, Россия): широта 44.86 долгота 40.35 высота над уровнем моря 158 м.

В архиве по умолчанию представлена погода в Дондуковской за последнюю неделю. Архивные данные за месяц целиком и за предыдущие месяцы, начиная с января 2011 года, Вы можете получить, выбрав интересующий диапазон дат из раскрывающегося списка и нажав кнопку "Ввод!".


*Определитесь, кто Вы:
робот инопланетянин человек

Внимание! Время в таблицах - всемирное. Для получения местного времени необходимо прибавить поправку, которая равна 3 ч.

Смотрите также архив погоды в соседних городах и на ближайших метеорологических станциях:

Погода в Майкопе (Адыгея, Россия) (34 км)
Погода в Белореченске (Краснодарский край, Россия) (38 км)
Погода в Лабинске (Краснодарский край, Россия) (38 км)
Погода в Даховской (Адыгея, Россия) (38 км)
Погода в Шунтуке (Адыгея, Россия) (47 км)
Погода в Армавире (Краснодарский край, Россия) (62 км)
Погода в Усть-Лабинске (Краснодарский край, Россия) (64 км)
Погода в Кропоткине (Краснодарский край, Россия) (66 км)
Погода в Псебае (Краснодарский край, Россия) (88 км)
Погода в Кореновске (Краснодарский край, Россия) (96 км)

Пояснения к столбцам:

Ветер - указаны скорость ветра в м/с - средняя за 10 мин, порывы в срок и между сроками (в фигурных скобках) и направление, откуда дует ветер: С - северный, СВ - северо-восточный, В - восточный, ЮВ - юго-восточный, Ю - южный, ЮЗ - юго-западный, З - западный, СЗ - северо-западный.
Видимость - горизонтальная дальность видимости в метрах или километрах. При видимости от 1 до 10 км при отсутствии осадков обычно наблюдается дымка, при ухудшении видимости до 1 км и менее - туман. В сухую погоду видимость может ухудшаться дымом, пылью или мглою.
Явления - указаны атмосферные явления, наблюдавшиеся в срок или в последний час перед сроком; фигурными скобками обозначены явления, наблюдавшиеся между сроками (за 1-3 часа до срока); квадратными скобками обозначены град или гололедные отложения с указанием их диаметра в мм.
Облачность - указаны через наклонную черту общая и нижняя облачность в баллах и высота нижней границы облаков в метрах; квадратными скобками обозначены формы облаков: Ci - перистые, Cs - перисто-слоистые, Cc - перисто-кучевые, Ac - высококучевые, As - высокослоистые, Sc - слоисто-кучевые, Ns - слоисто-дождевые, Cu - кучевые, Cb - кучево-дождевые. Подробнее классификацию облаков см. в Атласе облаков (PDF).
T - Температура воздуха - температура, измеренная на высоте 2 м над землей.
Td - Температура точки росы - температура, при понижении до которой содержащийся в воздухе водяной пар достигнет насыщения.
f - Относительная влажность воздуха - влажноcть воздуха, измеренная на высоте 2 м над землей.
Te - Эффективная температура - температура, которую ощущает одетый по сезону человек в тени. Характеристика душности погоды. При расчете учитывается влияние влажности воздуха и скорости ветра на теплоощущения человека.
Tes - Эффективная температура на солнце - температура, которую ощущает человек, с поправкой на солнечный нагрев. Характеристика знойности погоды. Зависит от высоты солнца над горизонтом, облачности и скорости ветра. Ночью, в пасмурную погоду, а также при ветре 12 м/с и более поправка равна нулю.
P - Атмосферное давление - приведенное к уровню моря атмосферное давление.
Po - Атмосферное давление - измеренное на уровне метеостанции атмосферное давление.
Tmin - Минимальная температура - минимум температуры воздуха на высоте 2 м над землей.
Tmax - Максимальная температура - максимум температуры воздуха на высоте 2 м над землей.
R - Количество осадков - Количество выпавших осадков за период времени, мм. При наведении курсора мыши на число - период времени, за который выпало указанное количество осадков.
R24 - Количество осадков - Количество выпавших осадков за 24 часа, мм.
S - Снежный покров - Высота снежного покрова, см. При наведении курсора мыши на число - состояние снежного покрова и степень покрытия местности в баллах.